#timestamp,LO_Frequency,Hit,StdDev 
1616684415.8,286046998.5,N
1616684435.7,286046998.1,N
1616684455.5,286047001.2,N
1616684475.4,286047000.4,N
1616684495.2,286047000.3,N
1616684515.0,286047000.3,N
1616684515.9,286047000.3,N
1616684535.8,286046999.8,N
1616684555.6,286047002.5,N
1616684575.5,286047004.0,N
1616684595.3,286047004.3,N
1616684615.1,286047001.8,N
1616684635.9,286047000.6,N
1616684655.7,286047000.3,N
1616684675.5,286047000.9,N
1616684695.4,286047000.9,N
1616684715.2,286046998.2,N
1616684735.0,286046997.2,N
1616684736.0,286046997.2,N
1616684755.8,286046996.6,N
1616684775.6,286046999.6,N
1616684795.5,286046996.7,N
1616684815.3,286047000.9,N
1616684835.1,286047000.7,N
1616684855.9,286047000.1,N
1616684875.7,286047002.5,N
1616684895.5,286047000.5,N
1616684915.4,286047001.2,N
1616684935.2,286046998.8,N
1616684955.1,286046997.6,N
1616684956.0,286046997.6,N
1616684975.8,286046997.8,N
1616684995.6,286046994.9,N
1616685015.5,286046997.6,N
1616685035.3,286046997.9,N
1616685055.2,286046997.5,N
1616685075.9,286046997.0,N
1616685095.7,286046996.5,N
1616685115.6,286046999.5,N
1616685135.4,286046998.9,N
1616685155.2,286046999.2,N
1616685175.1,286046996.8,N
1616685176.0,286046996.8,N
1616685195.8,286046996.7,N
1616685215.7,286046996.8,N
1616685235.5,286046996.8,N
1616685255.3,286046997.9,N
1616685275.2,286046996.5,N
1616685295.0,286046997.3,N
1616685295.9,286046997.3,N
1616685315.7,286046996.3,N
1616685335.6,286046995.5,N
1616685355.4,286046996.3,N
1616685375.3,286046995.3,N
1616685395.1,286046995.6,N
1616685396.0,286046995.6,N
1616685415.8,286046996.2,N
1616685435.7,286046996.3,N
1616685455.5,286046995.8,Y
1616685475.3,286046998.4,P
1616685495.2,286047000.6,N
1616685515.0,286047002.6,N
1616685515.9,286047002.6,N
1616685535.8,286047000.5,N
1616685555.6,286046999.7,N
1616685575.4,286047000.6,N
1616685595.3,286047001.0,N
1616685615.1,286047000.5,N
1616685635.9,286047000.4,N
1616685655.7,286047001.0,N
1616685675.5,286047001.0,N
1616685695.4,286047000.1,N
1616685715.2,286047000.2,N
1616685735.0,286047002.5,N
1616685735.9,286047002.5,N
1616685755.8,286046999.8,N
1616685775.6,286047000.6,N
1616685795.5,286047000.7,N
1616685815.3,286047000.7,N
1616685835.1,286047001.2,N
1616685855.9,286047000.6,N
1616685875.7,286047011.9,Y
1616685895.6,286046998.1,P
1616685915.4,286046995.3,P
1616685935.2,286046994.0,N
1616685955.1,286046990.5,Y
1616685956.0,286046990.5,P
1616685975.8,286046993.4,N
1616685995.7,286046991.9,P
1616686015.5,286046991.5,Y
1616686035.3,286046995.0,P
1616686055.2,286046993.7,P
1616686075.0,286046994.4,P
1616686075.9,286046994.4,Y
1616686095.8,286046999.9,P
1616686115.6,286047002.1,N
1616686135.4,286047003.1,N
1616686155.3,286047010.0,N
1616686175.1,286047009.7,N
1616686195.8,286047013.4,N
1616686215.7,286047011.0,N
1616686235.5,286047013.2,N
1616686255.4,286047013.8,N
1616686275.2,286047009.8,N
1616686295.0,286047010.0,N
1616686295.9,286047010.0,N
1616686315.8,286047010.3,N
1616686335.6,286047008.7,N
1616686355.4,286047010.7,N
1616686375.3,286047008.4,N
1616686395.1,286047007.0,N
1616686415.9,286047008.8,N
1616686435.7,286047010.3,N
1616686455.5,286047010.6,N
1616686475.4,286047009.8,N
1616686495.2,286047009.6,N
1616686515.0,286047011.8,N
1616686515.9,286047011.8,N
1616686535.8,286047010.9,N
1616686555.6,286047011.1,N
1616686575.5,286047011.7,N
1616686595.3,286047013.7,Y
1616686615.1,286047004.7,P
1616686635.9,286047004.8,N
1616686655.7,286047006.4,P
1616686675.5,286047009.1,Y
1616686695.4,286047004.0,P
1616686715.2,286047003.7,P
1616686735.1,286047003.7,P
1616686736.0,286047003.7,Y
1616686755.8,286047002.3,P
1616686775.6,286047000.1,N
1616686795.5,286046998.1,N
1616686815.3,286047000.6,N
1616686835.1,286047001.2,N
1616686855.9,286046999.6,N
1616686875.7,286046998.0,N
1616686895.6,286046996.6,N
1616686915.4,286046999.5,N
1616686935.2,286046997.2,N
1616686955.1,286046998.5,N
1616686956.0,286046998.5,N
1616686975.8,286047000.8,N
1616686995.6,286047001.9,N
1616687015.5,286047001.8,N
1616687035.3,286047003.8,N
1616687055.2,286047005.6,N
1616687075.9,286047004.8,N
1616687095.7,286047007.5,N
1616687115.6,286047007.0,N
1616687135.4,286047006.5,N
1616687155.2,286047006.7,N
1616687175.1,286047006.4,N
1616687176.0,286047006.4,N
1616687195.8,286047009.2,N
1616687215.7,286047008.8,N
1616687235.5,286047007.8,N
1616687255.3,286047009.2,N
1616687275.2,286047004.5,N
1616687295.0,286047006.9,N
1616687295.9,286047006.9,N
1616687315.7,286047007.5,N
1616687335.6,286047006.1,N
1616687355.4,286047008.7,N
1616687375.3,286047006.2,N
1616687395.1,286047006.1,N
1616687396.0,286047006.1,N
1616687415.8,286047006.3,N
1616687435.7,286047008.8,N
1616687455.5,286047007.9,N
1616687475.3,286047008.1,N
1616687495.2,286047007.5,N
1616687515.0,286047006.3,Y
1616687515.9,286047006.3,P
1616687535.8,286047000.9,P
1616687555.6,286047000.0,N
1616687575.4,286047000.0,N
1616687595.3,286047001.1,N
1616687615.1,286046996.5,N
1616687635.9,286046998.6,N
1616687655.7,286046998.9,N
1616687675.5,286046998.1,N
1616687695.4,286047001.2,N
1616687715.2,286047001.0,N
1616687735.0,286046998.2,N
1616687735.9,286046998.2,N
1616687755.8,286047000.6,N
1616687775.6,286047000.6,N
1616687795.5,286047001.0,N
1616687815.3,286047000.3,N
1616687835.1,286047000.9,N
1616687855.9,286047000.8,N
1616687875.7,286046998.1,N
1616687895.5,286046998.2,N
1616687915.4,286046999.0,N
1616687935.2,286047000.4,N
1616687955.1,286046999.9,N
1616687956.0,286046999.9,N
1616687975.8,286047000.2,N
1616687995.6,286047000.2,N
